SCP
0 0 0 0 0 0 0 0 0 0 0 0 0 0 0 0 0 0 -0 0 0 0 0 0 0 0 0 0 0 0 0 0 0 0 0 0 0 0 0 0 0 0 0 0
0 0 0 0 0 0 0 0 0 0 0 0 0 0 0 0 0 0 0 0 0 0 0 0 0 0 0 0 0 0 0 0 0 0 0 0 0 0 0 0 0 0 0 0
0 0 0 0 0 0 0 0 0 0 0 0 0 0 -0 0 0 0 0 0 0 0 0 0 0 0 0 0 0 0 0 0 0 0 0 0 0 0 0 0 0 0 0 0
0 0 0 0 0 0 0 0 0 0 0 0 0 0 0 -0 0 0 0 0 0 0 0 0 0 0 0 0 0 0 0 0 0 0 0 0 0 0 0 0 0 0 0 0
0 0 0 0 0 0 0 0 -0 -0 0 0 0 0 0 0 0 0 0 0 0 0 0 0 0 0 0 0 0 0 0 0 0 0 0 0 0 0 0 0 0 0 0 0
0 0 0 0 0 0 0 0 -0 -0 -0 0 0 0 0 0 0 0 0 0 0 0 0 0 0 0 0 0 0 0 0 0 0 0 0 0 0 0 0 0 0 0 0 0
0 0 0 0 0 0 0 0 -0 -0 -0 0 0 0 0 0 0 0 0 0 0 0 0 0 0 0 0 0 0 0 0 0 0 0 0 0 0 0 0 0 0 0 0 0
0 0 0 0 0 0 0 0 0 0 0 0 0 0 0 0 0 0 0 0 0 0 0 0 0 0 0 0 0 0 0 0 0 0 0 0 0 0 0 0 0 0 0 0
0 0 0 0 0 0 0 0 0 0 0 0 0 0 0 0 0 0 0 0 0 0 0 0 0 0 0 0 0 0 0 0 0 0 0 0 0 0 0 0 0 0 0 0
0 0 0 0 0 0 0 0 0 0 0 0 0 0 0 0 0 0 0 0 0 0 0 0 0 0 0 0 0 0 0 0 0 0 0 0 0 0 0 0 0 0 0 0
0 0 0 0 0 0 0 0 0 0 0 0 0 0 0 0 0 0 0 0 0 0 0 0 0 0 0 0 0 0 0 0 0 0 0 0 0 0 0 0 0 0 0 0
0 0 0 0 0 0 0 0 0 0 0 0 0 0 0 0 0 0 0 0 0 0 0 0 0 0 0 0 0 0 0 0 0 0 0 0 0 0 0 0 0 0 0 0
0 0 0 0 0 0 0 0 0 0 0 0 0 0 0 0 0 0 0 0 0 0 0 0 0 0 0 0 0 0 0 0 0 0 0 0 0 0 0 0 0 0 0 0
0 0 0 0 0 0 0 0 0 0 0 0 0 0 0 0 0 0 0 0 0 0 0 0 0 0 0 0 0 0 0 0 0 0 0 0 0 0 0 0 0 0 0 0
0 0 0 0 0 0 0 0 0 0 0 0 0 0 0 0 0 0 0 0 0 0 0 0 0 0 0 0 0 0 0 0 0 0 0 0 0 0 0 0 0 0 0 0
0 0 0 0 0 0 0 0 0 0 0 0 0 0 0 0 0 0 0 0 0 0 0 0 0 0 0 0 0 0 0 0 0 0 0 0 0 0 0 0 0 0 0 0
0 0 0 0 0 0 0 0 0 0 0 0 0 0 0 0 0 0 0 0 0 0 0 0 0 0 0 0 0 0 0 0 0 0 0 0 0 0 0 0 0 0 0 0
0 0 0 0 0 0 0 0 0 0 0 0 0 0 0 0 0 0 0 0 0 0 0 0 0 0 0 0 0 0 0 0 0 0 0 0 0 0 0 0 0 0 0 0
0 0 0 0 0 0 0 0 0 0 0 0 0 0 0 0 0 0 0 0 0 0 0 0 0 0 0 0 0 0 0 0 0 0 0 0 0 0 0 0 0 0 0 0
0 0 0 0 0 0 0 0 0 0 0 0 0 0 0 0 0 0 0 0 0 0 0 0 0 0 0 0 0 0 0 0 0 0 0 0 0 0 0 0 0 0 0 0
0 0 0 0 0 0 0 0 0 0 0 0 0 0 0 0 0 0 0 0 0 0 0 0 0 0 0 0 0 0 0 0 0 0 0 0 0 0 0 0 0 0 0 0
0 0 0 0 0 0 0 0 0 0 0 0 0 0 0 0 0 0 0 0 0 0 0 0 0 0 0 0 0 0 0 0 0 0 0 0 0 0 0 0 0 0 0 0
0 0 0 0 0 0 0 0 0 0 0 0 0 0 0 0 0 0 0 0 0 0 0 0 0 0 0 0 0 0 0 0 0 0 0 0 0 0 0 0 0 0 0 0
0 0 0 0 0 0 0 0 0 0 0 0 0 0 0 0 0 0 0 0 0 0 0 0 0 0 0 0 0 0 0 0 0 0 0 0 0 0 0 0 0 0 0 0
0 0 0 0 0 0 0 0 0 0 0 0 0 0 0 0 0 0 0 0 0 0 0 0 0 0 0 0 0 0 0 0 0 0 0 0 0 0 0 0 0 0 0 0
0 0 0 0 0 0 0 0 0 0 0 0 0 0 0 0 0 0 0 0 0 0 0 0 0 0 0 0 0 0 0 0 0 0 0 0 0 0 0 0 0 0 0 0
Wind_Speed
2 3 0 3 4 4 4 6 10 11 7 7 11 15 16 9 6 7 6 6 7 9 8 7 5 4 4 4 5 5 5 5 4 4 4 4 4 4 4 5 6 8 7 8
3 1 4 3 3 4 5 7 9 9 5 7 10 13 11 5 5 5 6 6 7 8 9 8 5 3 4 5 5 5 6 5 4 5 5 4 4 4 5 5 6 7 8 8
2 3 2 2 3 3 5 6 7 9 9 4 6 8 4 3 3 4 4 4 6 8 8 8 7 5 5 5 5 5 6 5 5 5 4 3 2 2 3 4 5 7 8 9
3 3 2 3 3 2 6 5 6 7 5 5 3 6 6 4 6 5 5 6 7 8 7 7 7 7 6 6 5 6 7 6 5 5 5 6 5 5 5 5 6 6 8 9
3 2 2 3 4 2 6 5 5 4 2 3 2 2 9 4 5 6 6 6 7 7 7 8 8 8 6 5 5 6 6 5 5 6 7 7 6 6 4 5 6 7 7 9
4 2 2 3 3 2 4 4 1 2 2 2 2 1 8 3 4 5 6 7 8 8 8 8 8 7 6 5 5 5 5 5 4 6 7 8 8 6 6 7 7 6 6 6
6 3 1 1 2 3 5 5 6 8 5 5 2 2 9 6 4 5 7 9 9 8 8 8 9 8 7 7 6 5 5 6 5 6 7 7 8 8 8 8 7 7 6 6
4 5 2 1 0 1 2 3 3 2 5 7 4 6 9 5 4 5 5 7 8 9 8 8 9 8 8 7 6 6 6 7 6 6 6 6 7 6 6 7 7 8 7 7
1 6 2 1 1 2 1 1 3 3 2 5 7 8 11 4 5 5 6 7 8 9 9 9 9 9 9 8 8 7 7 7 7 6 6 6 6 6 6 6 6 6 6 6
3 5 5 4 1 1 2 4 3 3 1 5 7 6 6 7 7 7 8 9 10 10 10 10 10 10 10 9 8 7 6 7 6 5 5 5 6 6 6 6 6 6 6 6
3 2 6 3 2 3 2 2 2 2 2 2 6 9 6 7 6 7 9 9 10 11 11 11 11 11 10 9 8 7 7 6 5 5 5 5 6 6 5 5 6 5 5 5
3 3 5 6 3 1 3 4 5 3 3 3 5 12 5 4 5 5 9 10 11 11 10 10 11 10 10 9 8 7 7 6 5 4 4 4 4 3 3 4 5 5 5 5
4 3 3 5 2 1 1 2 3 3 2 4 5 12 4 4 7 7 9 11 11 12 12 10 10 10 10 9 8 7 7 6 5 4 3 3 3 2 2 3 4 4 4 4
5 4 6 7 6 3 4 4 4 4 4 6 12 16 15 13 12 12 11 11 11 11 11 10 10 10 10 10 8 7 6 6 5 3 3 3 3 2 3 3 3 3 3 4
4 5 7 10 9 6 9 11 9 11 10 11 14 15 19 15 12 11 10 10 11 11 11 10 10 10 10 10 10 8 6 6 4 3 2 3 3 2 2 2 3 3 3 3
4 4 3 7 7 8 13 16 14 14 13 16 17 21 17 12 9 8 9 9 10 11 11 11 10 10 10 10 10 9 7 6 4 3 3 3 3 3 2 2 2 2 2 2
4 3 2 6 4 5 11 11 12 9 9 9 13 14 10 8 9 8 8 8 9 10 10 10 9 9 9 9 9 8 7 5 4 4 4 3 3 3 3 3 2 2 2 2
7 5 3 4 3 8 8 3 6 8 9 11 11 10 8 9 9 8 8 7 9 10 9 9 8 9 9 8 8 7 7 5 4 4 4 4 4 4 3 3 2 2 2 2
8 6 4 2 4 11 9 4 6 6 8 8 10 10 9 7 6 7 6 6 8 8 8 7 7 7 7 7 7 7 7 4 4 4 4 4 4 4 4 3 3 3 3 3
5 5 5 4 4 9 7 2 2 2 7 6 6 7 7 3 5 8 7 7 8 7 6 6 6 6 6 7 6 6 6 4 5 5 5 4 3 4 4 4 3 3 3 3
5 6 9 9 8 12 8 3 4 3 8 4 5 6 5 5 8 8 8 8 8 7 7 6 6 6 6 6 5 6 5 5 5 5 4 4 3 3 4 4 3 3 3 3
11 9 9 7 9 13 5 7 8 10 4 3 5 6 6 8 9 9 9 9 8 8 7 6 6 6 6 4 4 5 5 6 5 4 4 4 4 4 3 3 4 3 2 2
11 11 9 12 12 5 6 8 6 4 4 5 5 7 6 8 8 9 8 8 8 7 7 6 6 7 6 4 3 5 6 5 5 4 4 4 4 3 3 3 4 3 2 1
6 4 4 7 10 8 7 7 7 6 7 7 7 7 6 8 9 9 8 8 7 7 7 6 6 6 6 6 5 5 6 4 4 4 4 4 4 4 4 3 2 2 2 1
8 7 6 8 8 6 7 8 9 8 7 7 7 7 7 8 9 8 8 7 7 7 6 5 5 6 7 7 7 6 5 4 4 5 5 4 3 3 3 3 2 2 2 2
8 10 10 10 8 7 7 6 6 7 8 8 8 8 7 6 8 7 7 7 6 6 6 6 6 6 7 7 7 6 5 4 4 4 4 3 3 3 2 2 4 4 3 5
Wind_Direction
22 61 301 249 215 226 250 259 273 273 279 287 268 275 286 296 292 287 299 302 303 299 299 300 282 281 264 257 253 251 249 253 241 203 191 207 204 209 212 213 211 209 207 204
34 269 249 247 244 250 251 265 274 283 284 287 284 281 279 284 274 277 291 301 305 307 317 316 310 292 273 265 260 254 247 245 241 218 201 208 208 210 215 213 214 211 210 207
210 251 279 273 286 286 265 244 263 286 313 296 310 303 299 315 296 290 286 287 302 305 303 310 306 291 276 268 259 261 258 254 244 223 205 212 208 217 214 216 219 213 214 212
259 273 292 290 275 268 279 249 264 287 319 310 10 311 300 317 315 309 307 312 314 309 305 306 307 297 279 267 263 259 258 253 246 219 202 202 210 225 229 223 224 219 217 214
277 285 289 277 273 250 262 288 281 279 248 302 324 259 287 318 305 305 310 314 314 316 313 308 304 293 284 272 269 267 265 260 250 225 212 207 216 224 227 228 225 223 221 216
261 267 232 249 281 253 295 327 347 52 65 315 272 221 288 285 271 303 315 320 319 322 321 314 309 305 305 297 283 275 267 265 253 235 221 213 218 222 224 229 228 226 222 217
328 304 273 270 327 358 24 30 10 1 1 279 310 261 261 268 269 278 298 311 317 320 319 320 320 319 313 306 292 280 268 268 260 243 233 223 222 217 221 227 228 230 223 220
343 305 301 356 179 313 348 96 114 279 282 300 319 263 265 273 285 288 296 305 317 320 319 320 319 318 312 303 296 287 278 269 262 248 243 240 236 225 226 227 228 227 225 223
225 279 310 316 273 157 96 114 158 157 285 287 281 287 298 291 308 317 323 323 320 320 323 323 322 321 316 311 302 289 283 281 270 254 249 247 239 230 232 233 235 232 229 227
166 276 294 311 336 8 149 143 94 103 339 298 295 279 272 297 304 318 324 324 323 326 326 326 325 323 318 314 308 301 288 281 278 265 259 257 246 232 229 228 231 236 234 228
148 223 303 335 199 193 116 123 120 129 173 224 292 278 240 256 281 300 310 315 317 320 320 322 322 322 319 319 318 315 306 297 288 273 264 264 253 240 234 227 226 230 236 230
157 148 275 265 253 190 170 174 150 163 247 219 259 275 274 259 280 299 310 316 318 318 318 320 322 325 327 322 318 319 319 309 298 287 276 270 257 246 236 232 229 227 229 232
147 135 321 331 346 15 222 202 179 166 178 209 235 268 295 316 312 311 312 315 318 320 321 323 326 329 327 324 318 318 318 316 313 302 293 292 270 254 251 243 234 225 228 233
139 173 200 227 242 217 254 234 196 182 222 243 240 265 289 301 305 309 312 313 314 316 318 322 326 327 325 325 322 314 316 316 317 310 302 302 288 263 260 263 249 241 234 232
151 224 236 252 262 258 252 253 233 220 223 238 258 266 278 289 295 300 303 308 313 316 319 320 322 322 325 327 328 323 319 320 326 330 314 300 300 289 271 269 260 243 239 239
174 235 255 266 252 257 263 257 244 239 238 244 262 274 272 283 293 294 298 304 310 312 315 317 319 321 323 325 326 328 328 330 341 347 331 316 316 307 295 291 286 264 258 259
186 194 263 276 297 297 265 242 221 219 216 213 240 256 283 296 294 291 291 293 297 303 310 314 316 315 317 320 322 325 324 330 341 342 335 331 326 317 308 302 315 310 286 281
175 175 218 285 347 255 248 200 199 221 243 228 242 262 277 275 284 283 272 273 288 299 305 308 311 312 313 317 320 323 326 332 337 338 337 336 335 324 329 330 330 319 309 290
186 180 202 223 261 276 284 240 191 207 265 232 234 260 275 290 309 293 270 265 277 288 292 296 299 302 308 313 316 322 324 326 334 336 333 329 335 334 333 330 322 317 308 296
184 186 202 205 235 254 255 206 164 117 281 245 217 250 273 307 310 290 296 296 293 292 294 298 304 308 310 313 319 323 321 324 325 322 321 325 330 327 320 312 307 308 302 296
164 193 214 222 239 262 251 189 127 180 250 244 214 237 246 233 243 272 296 297 291 292 294 300 306 307 304 312 323 321 320 314 305 307 314 319 317 311 304 310 307 305 306 305
178 184 199 196 223 250 199 151 187 221 235 226 238 243 246 255 268 279 285 288 293 296 299 304 304 302 303 309 317 316 310 306 308 311 312 311 310 310 315 311 308 304 307 311
200 194 190 199 219 236 177 201 220 219 238 244 244 256 259 267 273 279 282 287 289 289 294 299 297 300 306 311 313 307 304 310 312 306 303 303 307 304 298 295 305 314 316 318
230 194 200 245 257 255 249 252 257 246 245 254 256 263 262 264 273 281 285 289 291 292 293 298 302 305 306 308 306 297 300 307 309 301 299 298 302 304 301 296 293 296 307 307
204 178 204 244 264 284 264 242 248 256 260 264 267 262 258 264 274 276 281 285 287 289 291 292 292 292 293 301 303 303 303 308 307 297 297 300 298 300 313 321 308 291 275 268
189 185 194 230 222 217 247 243 240 249 260 262 269 276 273 260 267 275 278 280 283 286 292 294 292 290 294 300 301 301 302 298 297 300 300 299 299 303 307 318 328 326 301 310